AO-07 1 07530U 74089B 20051.54467154 -.00000039 00000-0 35842-4 0 9996 2 07530 101.7843 022.0180 0011909 230.6380 246.0268 12.53642220071212 UO-11 1 14781U 84021B 20051.56252488 .00000113 00000-0 19958-4 0 9995 2 14781 097.5966 069.3612 0007440 221.1172 138.9482 14.83143504914353 LO-19 1 20442U 90005G 20051.71593367 -.00000022 00000-0 82496-5 0 9994 2 20442 98.6790 358.6549 0012446 137.5535 222.6614 14.32945101571757 HUBBLE 1 20580U 90037B 20051.34113931 .00000466 00000-0 17382-4 0 9998 2 20580 028.4707 020.8444 0002445 257.4494 236.2269 15.09340772438101 MET-2/21 1 22782U 93055A 20051.25404002 .00000026 00000-0 10081-4 0 9990 2 22782 082.5519 327.3949 0021706 203.8704 320.8400 13.83825610336691 AO-27 1 22825U 93061C 20051.83060081 .00000007 00000-0 20645-4 0 9990 2 22825 98.9212 51.3317 0008494 6.8603 353.2693 14.30078311377275 IO-26 1 22826U 93061D 20051.56474992 -.00000006 00000-0 15623-4 0 9991 2 22826 098.9153 051.0202 0008812 355.6086 004.5017 14.30413015377195 FO-29 1 24278U 96046B 20051.37491714 -.00000017 00000-0 21709-4 0 9994 2 24278 098.5675 176.7593 0349634 320.8231 036.8064 13.53095582160916 NOAA-15 1 25338U 98030A 20051.55207496 .00000029 00000-0 31021-4 0 9999 2 25338 098.7293 077.1316 0009522 242.6685 117.3525 14.25951791132179 GO-32 1 25397U 98043D 20051.37473191 -.00000027 00000-0 72896-5 0 9990 2 25397 98.7168 353.8473 0002207 62.7511 297.3892 14.23679574122972 ISS 1 25544U 98067A 20051.96577926 .00000227 00000-0 12253-4 0 9997 2 25544 51.6428 208.4684 0004852 299.6819 208.9132 15.49184060213844 NO-44 1 26931U 01043C 20051.50590816 -.00000020 00000-0 23947-4 0 9993 2 26931 067.0505 086.7707 0006501 263.4934 096.5427 14.30567540960209 SO-50 1 27607U 02058C 20051.17452167 -.00000032 00000-0 16164-4 0 9996 2 27607 64.5564 15.9960 0062518 206.8089 152.9779 14.75610254923402 CO-55 1 27844U 03031E 20051.52274536 .00000057 00000-0 45277-4 0 9995 2 27844 098.6843 061.0243 0010539 041.9974 318.2010 14.22221829863334 CO-57 1 27848U 03031J 20051.72634486 .00000043 00000-0 39468-4 0 9995 2 27848 98.6913 61.7691 0010576 52.6775 307.5365 14.21810917863244 RS-22 1 27939U 03042A 20051.85351421 .00000019 00000-0 12026-4 0 9991 2 27939 98.0700 188.3716 0013051 11.7499 348.4006 14.66837657876774 NOAA-18 1 28654U 05018A 20051.57612387 .00000093 00000-0 75271-4 0 9994 2 28654 099.0617 106.8126 0014101 199.4930 160.5703 14.12489905760272 CO-58 1 28895U 05043F 20051.35934351 .00000097 00000-0 27466-4 0 9990 2 28895 097.9891 191.1588 0015521 294.8048 065.1540 14.63738700763331 Falconsat-3 1 30776U 07006E 20051.18169149 .00003576 00000-0 96975-4 0 9994 2 30776 035.4352 316.3994 0002982 213.3427 146.7112 15.37240173718624 CO-65 1 32785U 08021C 20051.75417285 .00000220 00000-0 29341-4 0 9990 2 32785 97.5649 45.0051 0013559 157.4496 202.7320 14.88419761640433 AAUSAT2 1 32788U 08021F 20051.52031093 .00000515 00000-0 52085-4 0 9995 2 32788 097.4929 061.2616 0013366 091.6763 268.5989 14.94951443641690 DO-64 1 32789U 08021G 20051.72277714 .00001354 00000-0 93193-4 0 9997 2 32789 97.4347 98.5603 0011973 7.5768 352.5639 15.07466740644175 CO-66 1 32791U 08021J 20051.68914684 .00000358 00000-0 41484-4 0 9998 2 32791 97.5362 51.0771 0014438 130.8397 229.4076 14.90975185640917 RS-30 1 32953U 08025A 20051.81031141 .00000037 00000-0 19437-3 0 9991 2 32953 82.5069 351.0739 0018779 314.0791 45.8742 12.43094442533014 PRISM 1 33493U 09002B 20051.34416720 .00000500 00000-0 48992-4 0 9999 2 33493 98.1350 346.8194 0016172 86.6628 273.6442 14.96907087602049 NOAA-19 1 33591U 09005A 20051.57199004 .00000039 00000-0 46233-4 0 9992 2 33591 099.1951 053.8533 0014717 049.1214 311.1229 14.12396237568494 TISAT-1 1 36799U 10035E 20051.54986386 .00000411 00000-0 47452-4 0 9992 2 36799 098.1806 217.3745 0012129 002.7140 357.4141 14.91273801521353 JUGNU 1 37839U 11058B 20050.98224774 .00000341 00000-0 39753-4 0 9994 2 37839 19.9607 281.2228 0019011 162.2450 323.4838 14.12672070432124 SRMSAT 1 37841U 11058D 20051.79058448 .00000319 00000-0 30239-4 0 9995 2 37841 19.9731 338.2111 0011839 32.1948 356.5519 14.10649899431624 AO-71 1 37854U 11061E 20051.52853476 .00001478 00000-0 81889-4 0 9992 2 37854 101.7120 081.9249 0159175 052.4819 309.0740 15.07000189453715 HRBE 1 37855U 11061F 20051.53042743 .00001610 00000-0 86966-4 0 9990 2 37855 101.7257 079.1357 0171846 064.9071 296.9865 15.06013993453452 ALMASAT-1 1 38078U 12006B 20051.75502176 .00129375 10182-4 32461-3 0 9998 2 38078 69.4140 268.4715 0087130 231.0206 199.3408 15.89107597436355 HORYU-2 1 38340U 12025D 20051.78238080 .00000153 00000-0 30215-4 0 9996 2 38340 98.2980 102.3635 0012513 60.6783 299.5674 14.75811359417602 RS-40 1 38735U 12041C 20051.81494385 -.00000040 00000-0 -36315-3 0 9991 2 38735 82.4718 74.0139 0018136 59.4460 300.8404 12.42579077343248 BEESAT-3 1 39135U 13015F 20051.71603790 .00001228 00000-0 68680-4 0 9997 2 39135 64.8684 321.6002 0045559 264.6779 94.9149 15.17944668377736 BEESAT-2 1 39136U 13015G 20051.18860585 .00000920 00000-0 55431-4 0 9994 2 39136 64.8699 327.8908 0029923 278.9512 80.8227 15.17339422377564 ZACUBE-1 1 39417U 13066B 20051.68936963 .00000228 00000-0 35014-4 0 9997 2 39417 97.5630 56.2817 0057616 304.9564 54.6246 14.81224486337607 TRITON-1 1 39427U 13066M 20051.55799421 .00000258 00000-0 48632-4 0 9993 2 39427 097.7102 019.1425 0115141 095.1761 266.2597 14.67945492334364 GOMX-1 1 39430U 13066Q 20051.87591504 .00000093 00000-0 25931-4 0 9998 2 39430 97.7790 357.5896 0150414 194.5961 165.0884 14.59349261332658 LO-74 1 39440U 13066AA 20051.53053516 .00000255 00000-0 42283-4 0 9997 2 39440 097.6207 040.6195 0080315 004.2480 355.9394 14.75960821335184 AO-73 1 39444U 13066AE 20051.55185503 .00000273 00000-0 39859-4 0 9990 2 39444 097.5586 058.3094 0056627 298.0212 061.5281 14.82065901335904 SPROUT 1 39770U 14029E 20051.77981759 .00000327 00000-0 42068-4 0 9999 2 39770 97.8889 158.6410 0009065 2.3554 357.7690 14.87613921311566 DUCHIFAT-1 1 40021U 14033M 20051.35600947 .00000518 00000-0 58504-4 0 9990 2 40021 97.9370 341.9231 0012099 322.5101 37.5272 14.90815513308297 NANOSATCBR1 1 40024U 14033Q 20051.78364261 .00000300 00000-0 36987-4 0 9996 2 40024 97.9236 339.0998 0011409 325.9831 34.0654 14.89998899308237 EO-79 1 40025U 14033R 20051.72829316 .00000310 00000-0 38918-4 0 9995 2 40025 97.9131 336.0798 0011812 333.0432 27.0170 14.89073160308085 DTUSAT-2 1 40030U 14033W 20051.45667402 .00000270 00000-0 35009-4 0 9990 2 40030 097.9024 333.5215 0011211 330.1241 029.9334 14.88656552307451 EO-80 1 40032U 14033Y 20051.47142183 .00000260 00000-0 33907-4 0 9992 2 40032 097.9031 333.5378 0011149 330.7620 029.2971 14.88602605307436 ANTELSAT 1 40034U 14033AA 20051.84543598 .00000222 00000-0 40091-4 0 9990 2 40034 97.7296 273.0641 0059183 19.9820 340.3688 14.74207413305082 VELOX-1 1 40057U 14034E 20051.82602423 .00000241 00000-0 41130-4 0 9993 2 40057 98.2605 185.7031 0011442 156.5921 203.5816 14.77803331304261 DAURIA DX 1 1 40071U 14037C 20051.78338328 .00000077 00000-0 17345-4 0 9995 2 40071 98.4496 223.7204 0008908 147.0238 213.1538 14.81334757303837 UKUBE-1 1 40074U 14037F 20051.79416192 .00000197 00000-0 30753-4 0 9996 2 40074 98.4534 233.1319 0005251 126.1454 234.0266 14.84195226304303 HODOYOSHI-1 1 40299U 14070B 20051.86640050 .00000503 00000-0 23730-4 0 9990 2 40299 97.3325 131.2919 0011431 246.2447 225.6751 15.23875482293906 CHUBUSAT-1 1 40300U 14070C 20051.82308860 .00000555 00000-0 26953-4 0 9996 2 40300 97.3031 124.4349 0018069 267.7199 158.9040 15.22363210293617 QSAT-EOS 1 40301U 14070D 20051.82093576 .00001537 00000-0 61065-4 0 9996 2 40301 97.3047 128.9175 0023883 243.0286 256.3058 15.26585841293987 FIREBIRD FU3 1 40377U 15003B 20051.54835339 .00002904 00000-0 11524-3 0 9999 2 40377 099.1108 087.5675 0124569 348.1988 011.6328 15.19631809279391 FIREBIRD FU4 1 40378U 15003C 20051.79717601 .00002919 00000-0 11569-3 0 9993 2 40378 99.1111 87.9587 0124738 347.2510 12.5573 15.19648457279446 GRIFEX 1 40379U 15003D 20051.75140294 .00001918 00000-0 83980-4 0 9993 2 40379 99.1173 80.4878 0133819 10.1303 350.2572 15.16100394279016 NO-84 1 40654U 15025D 20050.48756303 .00010922 00000-0 13991-3 0 8589 2 40654 54.9883 128.1224 0121191 238.7220 120.2032 15.51508870150542 DEORBITSAIL 1 40719U 15032E 20051.68786067 .00000347 00000-0 56496-4 0 9996 2 40719 97.8848 303.1380 0015201 225.9192 134.0768 14.76914989248713 NUDT-PHONESAT 1 40900U 15049B 20051.72343963 .00001991 00000-0 85890-4 0 9991 2 40900 97.4354 63.7112 0013725 43.9594 68.9490 15.23638824245266 XW-2A 1 40903U 15049E 20051.73552421 .00001949 00000-0 46653-4 0 9993 2 40903 97.3065 100.5216 0012394 337.8054 161.8394 15.42647158248326 XW-2C 1 40906U 15049H 20051.83003564 .00000363 00000-0 22377-4 0 9992 2 40906 97.4758 54.9375 0016333 64.6372 56.6937 15.15932277244433 XW-2D 1 40907U 15049J 20051.70722420 .00000378 00000-0 23034-4 0 9995 2 40907 97.4736 54.5065 0015654 62.3482 48.1232 15.16147335244432 LILACSAT-2 1 40908U 15049K 20051.79639904 .00000325 00000-0 21504-4 0 9991 2 40908 97.4886 53.1091 0017556 70.7463 6.3028 15.13959349244193 XW-2E 1 40909U 15049L 20051.71289287 .00000771 00000-0 40952-4 0 9992 2 40909 97.4642 57.7888 0014934 56.1819 61.5097 15.18201837244666 XW-2F 1 40910U 15049M 20051.82451480 .00000929 00000-0 49318-4 0 9992 2 40910 97.4681 57.0148 0016074 53.8995 70.5608 15.17714182244499 XW-2B 1 40911U 15049N 20051.81977175 .00000631 00000-0 36145-4 0 9990 2 40911 97.4760 55.3050 0015606 62.7315 60.3426 15.16076752244348 DCBB 1 40912U 15049P 20051.73788282 .00001038 00000-0 51173-4 0 9991 2 40912 97.4497 60.9425 0015804 35.2216 80.4555 15.20079018244832 TW-1C 1 40926U 15051B 20051.69339506 .00019859 00000-0 23286-3 0 9998 2 40926 97.1044 102.9533 0007487 153.8950 325.0547 15.61508965248622 TW-1A 1 40928U 15051D 20051.77876466 .00002752 00000-0 66474-4 0 9991 2 40928 97.1226 82.4387 0009006 253.0076 224.4281 15.41986354247239 IO-86 1 40931U 15052B 20047.50314939 .00000440 00000-0 -27845-4 0 9996 2 40931 5.9959 125.0758 0013548 350.9845 9.0050 14.76624032237202 LQSat 1 40958U 15057A 20051.33708401 -.00000003 00000-0 70788-5 0 9997 2 40958 97.8685 118.4687 0018536 165.4181 194.7566 14.73108414235118 AO-85 1 40967U 15058D 20050.33741026 .00000037 00000-0 23478-4 0 9604 2 40967 64.7756 132.4703 0173086 118.9693 242.8889 14.76072342143998 ATHENOXAT-1 1 41168U 15077C 20051.65688574 .00002058 00000-0 72714-4 0 9997 2 41168 14.9872 205.5444 0011576 288.9610 70.9456 15.14118212231464 ChubuSat-2 1 41338U 16012B 20051.34031204 .00000368 00000-0 21880-4 0 9994 2 41338 31.0045 17.1831 0013657 26.4642 333.6689 15.00246297219984 ChubuSat-3 1 41339U 16012C 20051.88025420 .00000281 00000-0 15070-4 0 9995 2 41339 31.0131 11.5300 0013655 38.6715 321.4916 15.00414237220064 Horyu-4 1 41340U 16012D 20051.23191730 .00000546 00000-0 34652-4 0 9995 2 41340 031.0062 004.6206 0013807 055.7456 304.4486 15.01420617220094 OUFTI-1 1 41458U 16025C 20051.73449586 .00001569 00000-0 83053-4 0 9994 2 41458 98.0972 156.1943 0163377 245.8325 112.5746 15.06463972209756 e-st@r-II 1 41459U 16025D 20051.81334922 .00001918 00000-0 10110-3 0 9992 2 41459 98.0976 155.7810 0164988 247.2265 111.1486 15.06058661209736 AAUSAT4 1 41460U 16025E 20051.72689244 .00001809 00000-0 93261-4 0 9992 2 41460 98.0911 157.6207 0154143 237.7753 120.8479 15.08194843209897 LO-87 1 41557U 16033B 20051.82120554 .00001474 00000-0 56981-4 0 9999 2 41557 97.4062 142.8362 0014729 139.4368 220.7972 15.27745558207811 NuSat2 1 41558U 16033C 20051.80710324 .00001628 00000-0 59116-4 0 9992 2 41558 97.4103 144.6975 0013788 137.6632 222.5675 15.29696951207900 Lapan A3 1 41603U 16040E 20051.88654590 .00000140 00000-0 96476-5 0 9990 2 41603 97.3278 109.0024 0011792 252.9437 217.6970 15.19798112203281 Swayam 1 41607U 16040J 20051.61149105 .00001654 00000-0 71297-4 0 9990 2 41607 97.3340 113.6859 0011806 238.2771 121.7316 15.23905524203478 Pratham 1 41783U 16059A 20051.22385294 .00000039 00000-0 16809-4 0 9997 2 41783 098.0342 109.9077 0032777 330.4711 029.4639 14.63037577181599 AlSat 1N 1 41789U 16059G 20051.68482231 .00000000 00000-0 91094-5 0 9990 2 41789 98.0372 112.9028 0027483 317.6069 42.3012 14.64296656181796 ScatSat 1 41790U 16059H 20051.74641623 -.00000011 00000-0 82152-5 0 9999 2 41790 98.1780 95.4377 0004789 292.9214 67.1472 14.50901004180154 TY-1 1 41844U 16066D 20051.83789530 .00000862 00000-0 37697-4 0 9993 2 41844 97.4066 61.3266 0016194 43.2997 79.2396 15.24653015182340 Pegasus-1 1 41846U 16066F 20051.39722191 .00000266 00000-0 51269-4 0 9995 2 41846 098.6796 100.1209 0366461 224.5331 132.5866 14.37704353172007 CAS-2T 1 41847U 16066G 20051.54956654 .00000072 00000-0 21886-4 0 9993 2 41847 098.6727 100.7750 0365171 220.0528 137.3207 14.38041580172475 EO-88 1 42017U 17008BX 20051.41233735 .00001651 00000-0 66696-4 0 9996 2 42017 97.3743 120.6408 0006886 33.0089 327.1578 15.26154819167549 nSIGHT1 1 42726U 98067MF 20051.63659431 .00099327 00000-0 33020-3 0 9997 2 42726 51.6295 113.0530 0005220 34.0561 326.0779 15.89484747156814 CAS-4B 1 42759U 17034B 20051.78253177 .00000209 00000-0 26244-4 0 9993 2 42759 43.0199 313.5378 0011891 3.1313 39.8187 15.09746423148185 CAS-4A 1 42761U 17034D 20051.74258115 .00000083 00000-0 18551-4 0 9991 2 42761 43.0200 313.1346 0012206 3.9698 91.4134 15.09823435148171 UCLSat 1 42765U 17036A 20051.71231035 .00001391 00000-0 61514-4 0 9996 2 42765 97.3183 109.0276 0013050 82.6807 277.5913 15.23252435148067 NIUSat 1 42766U 17036B 20051.29504349 .00001024 00000-0 48380-4 0 9990 2 42766 097.3179 106.4107 0017165 077.1082 283.2070 15.21506155147721 LituanicaSAT 2 1 42768U 17036D 20051.46187442 .00002504 00000-0 10712-3 0 9993 2 42768 097.3234 108.5929 0016402 074.6685 285.6363 15.23615285147878 Aalto 1 1 42775U 17036L 20051.15806945 .00000869 00000-0 41326-4 0 9991 2 42775 97.3162 106.6278 0015550 77.2837 283.0136 15.21665228147682 URSA MAIOR 1 42776U 17036M 20051.29237096 .00000923 00000-0 43511-4 0 9991 2 42776 097.3173 106.9941 0015352 076.7679 283.5269 15.21828848147718 Max Valier Sat 1 42778U 17036P 20051.76396407 .00001010 00000-0 46581-4 0 9995 2 42778 97.3221 108.5626 0013912 78.8966 281.3834 15.22408085147828 Pegasus 1 42784U 17036V 20051.58276537 .00001284 00000-0 57508-4 0 9997 2 42784 097.3187 108.6364 0013628 083.7482 276.5307 15.22960548147837 NUDATSat 1 42787U 17036Y 20051.60491903 .00001440 00000-0 61956-4 0 9995 2 42787 097.3237 109.7961 0012902 073.8893 286.3764 15.24146344147749 SUCHAI 1 1 42788U 17036Z 20051.71337113 .00001543 00000-0 67507-4 0 9992 2 42788 97.3194 109.2481 0013158 82.2708 278.0023 15.23461788147957 SKCUBE 1 42789U 17036AA 20051.22253263 .00001343 00000-0 59400-4 0 9993 2 42789 097.3190 108.6559 0013042 083.9715 276.3008 15.23323192147793 VZLUSAT 1 1 42790U 17036AB 20051.26481619 .00001837 00000-0 78275-4 0 9996 2 42790 097.3211 109.4594 0012539 082.4004 277.8657 15.24135069147849 VENTA 1 1 42791U 17036AC 20051.26141218 .00001288 00000-0 57070-4 0 9995 2 42791 097.3188 108.7412 0012713 084.3013 275.9673 15.23316426147797 Robusta 1B 1 42792U 17036AD 20051.25642667 .00001419 00000-0 62247-4 0 9997 2 42792 97.3191 108.9043 0012622 84.3617 275.9059 15.23506515147825 D-SAT 1 42794U 17036AF 20051.54860022 .00000222 00000-0 24436-4 0 9997 2 42794 097.5093 089.9454 0127237 039.1040 321.9291 14.91221335145120 TechnoSat 1 42829U 17042E 20051.77845644 .00000159 00000-0 21400-4 0 9998 2 42829 97.5372 298.9632 0013292 322.2169 37.8116 14.91058122141758 QIKCOM-1 1 42983U 98067NF 20051.84024564 .00005657 00000-0 73269-4 0 9991 2 42983 51.6381 177.9658 0003721 340.3546 19.7303 15.60575390131912 AO-91 1 43017U 17073E 20051.72867376 .00000663 00000-0 56235-4 0 9997 2 43017 97.7267 328.4898 0258818 73.9708 288.9842 14.78801310121764 EcAMSat 1 43019U 98067NG 20051.71954254 .00010479 00000-0 11290-3 0 9999 2 43019 51.6399 168.2291 0003959 324.4417 35.6314 15.64324061214351 PICSAT 1 43132U 18004X 20051.28092227 .00001476 00000-0 63634-4 0 9990 2 43132 097.4603 123.2969 0011231 107.0116 253.2353 15.24118812117050 AO-92 1 43137U 18004AC 20051.75865415 .00001175 00000-0 51575-4 0 9991 2 43137 97.4589 123.6603 0010826 106.9991 253.2434 15.23891668117118 TianYi 2 1 43155U 18008A 20051.84535612 .00000383 00000-0 26337-4 0 9996 2 43155 97.4603 123.8715 0017403 188.4020 279.8152 15.11461335115151 Zhou Enlai 1 43156U 18008B 20051.84455705 .00000333 00000-0 23702-4 0 9999 2 43156 97.4649 123.7323 0014389 185.9664 309.2277 15.10986089115111 TianYi 6 1 43158U 18008D 20051.75699757 .00000341 00000-0 24466-4 0 9995 2 43158 97.4604 122.8493 0013487 184.7722 290.8631 15.10536903115050 S-Net G 1 43186U 18014G 20051.45554893 -.00000363 00000-0 -26642-4 0 9995 2 43186 097.7015 321.1675 0009605 259.8856 100.1282 14.96755270112049 S-Net H 1 43187U 18014H 20051.72277609 -.00000358 00000-0 -26264-4 0 9997 2 43187 97.7013 321.4124 0009610 258.7080 101.3062 14.96755210112080 S-Net J 1 43188U 18014J 20051.72262551 -.00000364 00000-0 -26751-4 0 9996 2 43188 97.7016 321.4375 0009602 258.8277 101.1865 14.96754922112080 S-Net K 1 43189U 18014K 20051.72300441 -.00000362 00000-0 -26576-4 0 9991 2 43189 97.7012 321.4087 0009610 258.6891 101.3251 14.96754349110639 FMN 1 1 43192U 18015A 20051.85515670 .00002148 00000-0 88315-4 0 9993 2 43192 97.4253 182.0908 0017006 140.1052 24.2275 15.25141728113975 Shaonian Xing 1 43199U 18015H 20051.79869031 .00001531 00000-0 63222-4 0 9991 2 43199 97.4027 180.6068 0017206 149.7996 8.7140 15.25424063114027 1KUNS-PF 1 43466U 98067NP 20051.66554997 .00066549 00000-0 34275-3 0 9996 2 43466 51.6313 150.2788 0002450 355.2633 4.8345 15.80534935101765 UBAKUSAT 1 43467U 98067NQ 20051.72652235 .00026574 00000-0 22272-3 0 9996 2 43467 51.6341 165.0634 0001795 310.8794 49.2048 15.69757016101584 Irazu 1 43468U 98067NR 20051.66269125 .00422242 92192-4 63258-3 0 9990 2 43468 51.6278 133.4910 0007552 5.0225 355.0861 16.04096968201976 EnduroSat One 1 43551U 98067NZ 20051.72159085 .00034980 00000-0 26352-3 0 9998 2 43551 51.6335 165.7659 0004859 2.7013 357.4011 15.72152070 91800 EQUISat 1 43552U 98067PA 20051.71054112 .00025120 00000-0 22048-3 0 9997 2 43552 51.6363 171.0336 0005279 0.7916 359.3088 15.68654623 91699 UiTMSat 1 1 43589U 98067PD 20051.56433610 .00031976 00000-0 26504-3 0 9991 2 43589 051.6331 171.4227 0004635 006.9570 353.1490 15.69911723087418 Maya 1 1 43590U 98067PE 20051.55744527 .00032501 00000-0 26931-3 0 9993 2 43590 051.6333 171.3864 0004756 008.0120 352.0953 15.69909582087340 Bhutan 1 1 43591U 98067PF 20051.34704736 .00029142 00000-0 24141-3 0 9997 2 43591 51.6341 172.2799 0004813 7.7368 352.3702 15.69976174 87314 SiriusSat 1 1 43595U 98067PG 20051.75805617 .00027783 00000-0 24576-3 0 9997 2 43595 51.6333 173.4863 0002981 333.0283 27.0559 15.68411305 86515 SiriusSat 2 1 43596U 98067PH 20051.74855575 .00028491 00000-0 25270-3 0 9994 2 43596 51.6341 174.2363 0003393 330.9166 29.1642 15.68329763 86504 Tanusha-3 1 43597U 98067PJ 20051.70068462 .00044112 00000-0 31722-3 0 9999 2 43597 51.6311 167.7729 0003320 344.5152 15.5745 15.73145014 86583 SurfSat 1 43614U 18070B 20051.70755440 .00003346 00000-0 87554-4 0 9993 2 43614 93.0305 105.9102 0018145 75.6564 284.6702 15.38621833 80377 CP-7 DAVE 1 43615U 18070C 20051.72901951 .00003214 00000-0 84406-4 0 9993 2 43615 93.0308 105.9153 0018289 75.0602 285.2675 15.38505861 80371 ELFIN-B 1 43616U 18070D 20051.40766742 .00004792 00000-0 12132-3 0 9994 2 43616 093.0271 105.6962 0018855 078.4377 281.8993 15.39592627080351 ELFIN-A 1 43617U 18070E 20051.71317861 .00005329 00000-0 13435-3 0 9997 2 43617 93.0325 106.2364 0018109 74.6570 285.6684 15.39730692 80401 STARS-Me Mother 1 43640U 98067PQ 20051.56344313 .00015770 00000-0 17688-3 0 9997 2 43640 051.6349 185.0204 0004496 308.6358 051.4233 15.62838308078279 CubeBel 1 1 43666U 18083E 20051.85457381 .00001020 00000-0 53360-4 0 9998 2 43666 97.5015 79.4189 0016288 53.0992 71.5570 15.18023823 72776 Changshagaoxin 1 43669U 18083H 20051.81933204 .00000953 00000-0 51412-4 0 9990 2 43669 97.4884 77.9360 0012039 48.9184 311.3087 15.17115734 72693 Ten-Koh 1 43677U 18084G 20051.38447715 .00000131 00000-0 19328-4 0 9997 2 43677 097.8689 168.8443 0016000 182.9311 177.1816 14.90248271071357 PO-101 1 43678U 18084H 20051.74449155 -.00000164 00000-0 -10584-4 0 9991 2 43678 97.8688 170.2710 0009367 199.4265 160.6613 14.91603306 71470 IRVINE 01 1 43693U 18088D 20051.52377069 .00002947 00000-0 12555-3 0 9990 2 43693 085.0385 155.0446 0017879 012.8210 347.3483 15.22360249070909 QO-100 1 43700U 18090A 20051.74354925 .00000126 00000-0 00000 0 0 9997 2 43700 0.0151 114.3811 0002197 255.9125 73.2741 1.00273363 4777 Reaktor Hello World 1 43743U 18096AA 20051.84794679 .00001293 00000-0 51229-4 0 9995 2 43743 97.4341 126.2734 0017907 178.2926 317.1426 15.27125726 68449 MinXSS-2 1 43758U 18099A 20051.51504889 -.00000103 00000-0 -40495-5 0 9995 2 43758 097.7189 125.3202 0014770 219.4072 140.6075 14.95577888066321 AO-95 1 43770U 18099N 20051.43820526 .00000026 00000-0 76865-5 0 9991 2 43770 097.7188 124.8122 0013528 226.9658 133.0431 14.94913080066286 RANGE-B 1 43772U 18099Q 20051.27166446 .00000674 00000-0 66732-4 0 9999 2 43772 097.7247 125.0283 0013540 213.5379 146.4986 14.95072836066257 RANGE-A 1 43773U 18099R 20051.42794381 .00000288 00000-0 31612-4 0 9992 2 43773 097.7132 124.5304 0012741 212.7632 147.2800 14.94911919066273 MOVE-II 1 43780U 18099Y 20051.68570302 .00000910 00000-0 87721-4 0 9997 2 43780 97.7185 125.1945 0012668 222.4646 137.5596 14.95283826 66317 SNUSat 2 1 43782U 18099AA 20051.48777639 .00000641 00000-0 63499-4 0 9996 2 43782 097.7183 125.0303 0011993 211.5005 148.5499 14.95186488066299 SnugLite 1 43784U 18099AC 20051.26280836 .00000271 00000-0 29792-4 0 9999 2 43784 097.7145 124.6689 0014286 222.0860 137.9265 14.95274594066272 ITASat 1 1 43786U 18099AE 20051.72998243 .00000231 00000-0 26154-4 0 9995 2 43786 97.7198 125.4342 0014413 219.5298 140.4872 14.95260054 66342 EAGLET 1 1 43790U 18099AJ 20051.75193267 .00000761 00000-0 73629-4 0 9993 2 43790 97.7191 125.6581 0012524 223.3625 136.6612 14.95641859 66058 ESEO 1 43792U 18099AL 20051.21982371 .00000514 00000-0 51465-4 0 9998 2 43792 097.7169 125.0127 0012256 221.9230 138.1053 14.95570117066035 CSIM 1 43793U 18099AM 20051.43012068 .00000578 00000-0 56759-4 0 9991 2 43793 097.7154 125.1430 0012231 217.8864 142.1497 14.95930135066046 Astrocast 0.1 1 43798U 18099AS 20051.42038908 .00000625 00000-0 61051-4 0 9990 2 43798 097.7184 125.4084 0011919 202.6379 157.4318 14.95821663066302 JO-97 1 43803U 18099AX 20051.82472100 .00000620 00000-0 61258-4 0 9991 2 43803 97.7162 125.3761 0014227 219.2504 140.7686 14.95424774 66355 Suomi 100 1 43804U 18099AY 20051.42333233 .00000614 00000-0 60700-4 0 9995 2 43804 097.7161 124.9738 0014263 220.7942 139.2212 14.95416699066307 Al Farabi 2 1 43805U 18099AZ 20051.80773101 .00000800 00000-0 77276-4 0 9993 2 43805 97.7162 125.4061 0014486 219.4657 140.5510 14.95513952 66361 PWSat 2 1 43814U 18099BJ 20051.29482521 .00015352 00000-0 10257-2 0 9991 2 43814 097.7787 130.1674 0010836 198.7277 161.3763 15.07041543065893 CHOMPTT 1 43855U 18104G 20051.61944525 .00000810 00000-0 32737-4 0 9998 2 43855 085.0357 253.1381 0019371 120.8436 239.4716 15.22759588065592 ISAT 1 43879U 18111D 20051.79369139 -.00000022 00000-0 32122-5 0 9998 2 43879 97.7094 321.0757 0011849 279.9945 79.9938 14.96154820 60889 UWE-4 1 43880U 18111E 20051.79265338 -.00000142 00000-0 -74415-5 0 9991 2 43880 97.7105 321.2841 0011026 281.0689 78.9292 14.96391196 60898 Sparrow 1 43881U 18111F 20051.44501762 .00000190 00000-0 21884-4 0 9990 2 43881 097.7115 320.9954 0010930 281.1105 078.8888 14.96448597062843 Lume 1 1 43908U 18111AJ 20051.72106542 .00001157 00000-0 49245-4 0 9993 2 43908 97.2764 315.0636 0020806 195.0620 165.0001 15.24796619 64085 FO-98 1 43933U 19003B 20051.73449481 .00000637 00000-0 30849-4 0 9997 2 43933 97.2477 105.8774 0016416 299.1351 203.7288 15.21941777 60628 FO-99 1 43937U 19003F 20051.74455564 .00001115 00000-0 48480-4 0 9993 2 43937 97.2450 106.8061 0022452 281.3473 219.1803 15.24095531 60702 Delphini 1 1 44030U 98067PW 20051.77895811 .00021042 00000-0 24011-3 0 9995 2 44030 51.6347 190.2220 0004125 355.3620 4.7335 15.62162266 60095 MYSat 1 1 44045U 18092F 20051.78381028 .00002183 00000-0 72044-4 0 9997 2 44045 51.6444 253.3743 0010597 255.3972 104.5837 15.36046100 57203 AstroCast 0.2 1 44083U 19018F 20051.70105054 .00000887 00000-0 42562-4 0 9994 2 44083 97.4373 114.2880 0012210 218.9293 141.1064 15.21439979 49479 AISTechSat 3 1 44103U 19018AB 20051.77703455 .00000731 00000-0 34112-4 0 9993 2 44103 97.4254 114.4605 0012013 236.2246 263.3639 15.22971901 49527 AISat 1 1 44104U 19018AC 20051.52162520 .00000902 00000-0 31569-4 0 9992 2 44104 097.4782 120.3851 0056806 271.5734 087.9000 15.30847545049768 Raavana-1 1 44329U 98067QE 20051.72023913 .00011771 00000-0 17528-3 0 9990 2 44329 51.6384 203.3964 0006118 282.4867 77.5440 15.55574517 38666 Uguisu 1 44330U 98067QF 20051.66323901 .00011398 00000-0 17034-3 0 9992 2 44330 51.6380 203.7635 0006123 280.7883 79.2419 15.55512733 38632 NepaliSat-1 1 44331U 98067QG 20051.58635773 .00011859 00000-0 17636-3 0 9997 2 44331 051.6380 204.0023 0006178 283.5412 076.4891 15.55601911038637 Prox-1 1 44339U 19036A 20051.54524325 .00000927 00000-0 17108-3 0 9998 2 44339 024.0034 133.7139 0010958 307.9572 051.9932 14.52847031034967 Oculus-ASR 1 44348U 19036K 20051.40618724 .00008794 00000-0 13179-3 0 9994 2 44348 028.5163 076.2732 0376370 130.4157 232.9904 15.00266471036048 Armadillo 1 44352U 19036P 20051.39940303 .00012979 00000-0 19702-3 0 9996 2 44352 028.5298 074.5357 0367772 132.7028 230.5153 15.02006068036017 NO-104 1 44354U 19036R 20051.41328352 .00009568 00000-0 14154-3 0 9991 2 44354 028.5306 074.5621 0373652 132.3782 230.9067 15.01158592036051 NO-103 1 44355U 19036S 20051.36992385 .00018010 00000-0 26296-3 0 9991 2 44355 028.5310 071.2962 0360355 137.7053 225.1916 15.04475915036081 CP9 1 44360U 19036X 20051.39124023 .00035334 -53158-5 43646-3 0 9990 2 44360 028.5121 064.1804 0351219 149.8168 212.3159 15.09219682036037 Move-IIb 1 44398U 19038N 20051.50356166 .00001292 00000-0 78422-4 0 9990 2 44398 097.5216 014.3671 0025462 170.1187 190.0550 15.12055541034754 SONATE 1 44400U 19038Q 20051.51484294 .00000553 00000-0 35962-4 0 9990 2 44400 097.5244 014.3970 0025534 168.4448 191.7374 15.11834747034755 BeeSat 9 1 44412U 19038AC 20051.61906394 .00000872 00000-0 54171-4 0 9991 2 44412 97.5234 14.5483 0022903 173.4136 186.7400 15.12095753 34464 JAISAT-1 1 44419U 19038F 20051.54462864 .00000842 00000-0 51753-4 0 9999 2 44419 097.5235 014.6501 0021765 172.9170 187.2372 15.12577724034772 LightSail-2 1 44420U 19036AC 20051.43483662 .00006358 00000-0 14136-2 0 9996 2 44420 24.0096 132.9095 0015725 309.2472 50.6886 14.54488260 33105 Taurus 1 1 44530U 19059C 20051.77609695 .00000619 00000-0 18907-3 0 9991 2 44530 98.5760 131.7314 0017594 148.9517 211.2716 14.45273855 23340 MO-106 1 44830U 19084G 20051.27083442 .00035694 00000-0 30674-3 0 9999 2 44830 96.9948 280.0628 0035906 331.3519 28.5770 15.68392552 11872 TRSI-Sat 1 44831U 19084H 20051.58900597 .00040072 00000-0 34388-3 0 9995 2 44831 096.9956 280.3933 0035762 329.2539 030.6628 15.68413030011930 MO-105 1 44832U 19084J 20051.57933668 .00040265 00000-0 34078-3 0 9990 2 44832 096.9954 280.4000 0035222 329.2472 030.6725 15.68772824011928 Duchifat 3 1 44854U 19089C 20051.46147435 .00000187 00000-0 21608-4 0 9991 2 44854 36.9667 75.6143 0007676 193.8340 166.2200 14.98972689 10588 OPS-SAT 1 44878U 19092F 20051.63414148 -.00000066 00000-0 00000 0 0 9993 2 44878 97.4651 236.9325 0015550 47.2779 312.9834 15.15264273 9697 FloripaSat 1 1 44885U 19093G 20051.77643159 .00000160 00000-0 26897-4 0 9994 2 44885 97.9686 128.6146 0016056 72.7463 287.5509 14.81969889 9278 SwampSat-2 1 45115U 19071E 20051.56588819 .00011565 00000-0 36678-3 0 9993 2 45115 051.6416 212.8252 0013040 356.1771 003.9109 15.33070988003022 HuskySat-1 1 45119U 19071J 20051.82399927 .00001934 00000-0 70996-4 0 9997 2 45119 51.6418 211.5487 0012280 353.2691 6.8123 15.33142744 3071 /EX
